This is the latest recevied weather packets stored in our database for station/object NU3S-7. If no packets are shown the sender has not sent any weather packets the latest 10 day(s).
| Time | Temp. | Humidity | Pressure | Rain* | Wind** | Luminosity | Snow |
|---|---|---|---|---|---|---|---|
| 1778060856 | 13.33° C | 100% | 1005.8 hPa | 6.35 mm | - | - | - |
| 1778060255 | 13.33° C | 100% | 1005.6 hPa | 5.84 mm | - | - | - |
| 1778059655 | 13.33° C | 100% | 1005.8 hPa | 5.84 mm | - | - | - |
| 1778059054 | 13.33° C | 100% | 1006.1 hPa | 5.33 mm | - | - | - |
| 1778058453 | 13.33° C | 100% | 1006.2 hPa | 5.08 mm | - | - | - |
| 1778057852 | 13.33° C | 100% | 1006.3 hPa | 4.83 mm | - | - | - |
| 1778057250 | 13.33° C | 100% | 1006.3 hPa | 4.32 mm | - | - | - |
| 1778056650 | 13.33° C | 100% | 1006.2 hPa | 3.81 mm | - | - | - |
| 1778056050 | 13.33° C | 100% | 1006.1 hPa | 3.56 mm | - | - | - |
| 1778055449 | 13.33° C | 100% | 1006 hPa | 2.79 mm | - | - | - |
| 1778054848 | 13.33° C | 100% | 1006.2 hPa | 2.54 mm | - | - | - |
| 1778054411 | 13.33° C | 100% | 1006.1 hPa | 2.29 mm | - | - | - |
| 1778054248 | 13.33° C | 100% | 1006.1 hPa | 2.29 mm | - | - | - |
| 1778053812 | 13.33° C | 100% | 1005.9 hPa | 2.29 mm | - | - | - |
| 1778053648 | 13.33° C | 100% | 1005.9 hPa | 2.29 mm | - | - | - |
| 1778053047 | 13.33° C | 100% | 1005.9 hPa | 2.29 mm | - | - | - |
| 1778052447 | 13.33° C | 100% | 1005.9 hPa | 2.29 mm | - | - | - |
| 1778052013 | 13.33° C | 100% | 1006 hPa | 2.29 mm | - | - | - |
| 1778051846 | 13.33° C | 100% | 1006 hPa | 2.29 mm | - | - | - |
| 1778050646 | 13.89° C | 100% | 1006.6 hPa | 2.03 mm | - | - | - |
| 1778049443 | 13.89° C | 99% | 1006.9 hPa | 1.78 mm | - | - | - |
| 1778048841 | 13.89° C | 99% | 1007 hPa | 1.52 mm | - | - | - |
| 1778048240 | 13.89° C | 99% | 1007 hPa | 1.27 mm | - | - | - |
| 1778047670 | 13.89° C | 99% | 1007.3 hPa | 1.27 mm | - | - | - |
| 1778047638 | 13.89° C | 99% | 1007.3 hPa | 1.27 mm | - | - | - |
* Rain since midnight (hover to see other rain measurements)
** Current wind speed in m/s (hover to see current wind gust speed)